Vertical_Velocity
-7 -1 2 6 -2 -1 -2 -2 -3 -3 -0 6 -3 -12 -6 -4 9 4 1 1 5 7 6 4 6 14 6 3 9 8 10 5 -1 6 -0 -2 4 5 2 -1 -1 -1 -0 0
-2 1 -6 2 -0 -1 0 -1 -6 -6 5 6 -3 -11 -12 -3 -2 6 2 8 8 6 7 -4 2 0 1 11 6 6 8 6 8 -2 11 5 5 3 4 -0 -0 0 1 2
-1 7 -1 -0 1 -0 0 3 2 2 -8 -4 10 -13 22 6 27 9 7 -0 -1 -2 -3 -1 -2 1 1 -2 -4 -1 3 4 5 1 2 3 4 -0 -3 -5 -1 1 2 4
-2 -3 0 -0 -2 2 1 1 -3 -2 1 1 6 -16 -20 2 3 3 0 2 2 2 1 2 3 2 -0 0 2 4 1 1 5 2 -1 -1 4 0 6 2 5 5 2 -1
7 1 -1 -1 3 -0 -7 -6 -1 -2 -0 5 -7 15 12 24 1 6 -2 -1 1 0 2 1 1 3 3 3 2 2 5 7 3 7 -2 -2 -1 6 5 -1 4 3 5 1
-3 1 -4 -1 -3 -1 -3 -4 -4 5 6 6 -3 6 -6 12 12 6 0 2 -0 -3 0 0 2 2 2 1 2 0 2 4 3 0 6 -2 2 10 -1 2 -2 6 6 5
-0 4 -2 -2 -4 4 2 -3 -7 3 7 -7 3 -3 -14 42 4 1 4 4 1 -0 -4 -2 -5 1 1 -3 7 3 2 6 7 3 4 4 -3 3 6 3 -0 -1 4 3
-1 14 -4 -0 -2 -1 -10 1 5 2 3 -6 -12 -11 -19 60 9 -2 1 4 -2 -5 -23 -3 6 -1 -2 1 2 -5 -4 0 -1 3 10 8 4 -2 5 4 -6 -5 1 7
-3 3 -3 7 -5 -2 14 9 -1 1 -9 21 -7 -17 1 57 -4 9 3 10 5 8 -3 -3 -6 -29 -18 -12 -5 -6 -2 1 5 3 -4 5 8 3 1 12 7 -6 5 1
12 -8 -7 2 -13 -4 -2 -6 -0 4 2 -2 -6 -7 -22 0 -23 -21 -19 -6 -11 -7 -1 11 5 2 4 -7 -7 -7 -5 -1 -3 -7 1 1 3 6 2 4 7 -4 7 3
-4 5 -1 8 3 4 -5 -3 6 8 1 5 0 -24 0 -1 -14 -31 -23 -6 3 5 -13 -9 -9 -3 -0 4 4 -4 -4 -3 0 -2 -0 2 -2 6 6 -2 7 1 7 1
-1 -1 -3 -10 -4 -3 -4 4 -2 5 -15 -3 12 -104 -1 9 -12 7 -6 -2 7 -6 -15 -5 -4 -3 -2 3 -1 -8 1 -8 3 2 -1 3 2 2 5 6 5 7 1 4
-2 15 -4 13 -1 -5 0 -5 8 6 11 -9 22 -55 -21 -2 5 -11 -0 3 -9 -13 -10 -8 -1 -3 -2 -1 -7 3 5 3 -2 4 -4 3 1 3 7 6 1 10 6 4
4 -2 -0 -3 -3 1 -3 -2 -2 7 14 -15 -5 -23 -16 -8 -7 -8 -1 -3 -3 -7 -3 -14 -6 8 5 -5 -3 -1 -5 -2 7 -0 -14 1 9 2 6 2 3 4 5 5
2 -4 5 3 -3 -0 0 2 -7 6 -3 30 -27 0 -11 4 16 -8 -3 -5 -7 -9 -9 -1 -2 -2 4 1 2 -2 -10 -9 -7 -5 9 -8 6 -0 3 9 1 3 8 4
-0 -6 -1 -9 -10 -7 -5 -2 2 -0 -10 12 13 -6 11 11 -12 0 -0 1 -9 -10 -10 -3 -6 -3 5 5 5 0 3 -7 5 -3 -5 -9 9 1 9 5 6 4 2 7
-4 -2 2 -11 1 -1 -9 4 10 4 -5 4 6 -7 -9 -7 -4 5 -7 -10 -2 3 14 -13 -6 -12 -0 -1 5 3 -7 -0 -7 2 6 8 -6 -24 4 4 14 4 2 6
-8 1 7 -12 -3 4 14 -1 3 16 5 -6 12 0 9 11 -16 -11 5 3 5 -8 -5 -9 -7 -6 7 1 5 7 4 -5 -2 -9 -1 -5 11 11 2 15 8 11 1 5
-0 6 0 0 1 -18 -15 4 1 9 -22 -3 12 9 -7 4 -6 -44 22 4 -5 -9 -4 -3 -5 -4 -4 5 0 1 4 4 6 11 -2 1 -5 7 5 -5 9 14 0 4
-4 2 9 4 14 3 -7 -19 4 -4 -40 30 -1 8 6 -6 -12 -23 2 8 -2 12 4 -4 -7 -5 2 8 2 -4 3 -4 1 3 5 3 -3 3 -10 -4 5 4 5 6
10 16 4 2 1 -20 -12 17 -9 11 -18 -28 4 -9 -9 3 3 -17 -10 -19 3 2 -13 0 -1 -2 -1 4 1 -2 7 -0 -7 4 5 -3 5 -1 -3 -7 7 8 2 9
-0 3 -8 2 9 -18 15 12 44 13 -20 4 -2 -7 -9 0 -7 3 -2 3 -8 -8 -13 9 -9 -4 4 2 -3 -2 -1 10 -2 -4 5 2 -6 -3 8 -1 0 5 6 6
-1 -5 1 15 -27 -4 -24 -8 -8 2 10 -7 -1 -4 1 -1 -8 -3 -9 3 2 4 -5 7 -5 -13 9 4 4 -11 -4 3 7 -2 -5 6 -6 1 9 5 5 2 6 1
1 -4 0 17 2 2 -7 -5 5 4 -1 -3 3 -5 2 3 1 -5 -22 -5 -3 -0 -11 -2 -1 -2 -8 2 5 -0 -5 -5 3 9 -3 3 8 -1 9 7 1 6 2 2
21 1 -2 -12 -9 7 6 4 1 -6 3 1 3 4 1 5 2 3 -9 -9 0 -2 -1 5 -3 -7 -4 -1 -1 3 -4 -6 -7 -3 -3 -6 2 12 7 5 1 14 4 7
-3 1 11 -10 -0 2 -4 -5 -1 -4 -5 -5 4 -10 0 11 2 2 -6 -3 -3 -16 4 -3 1 -3 -4 0 -2 1 -0 -6 -2 -7 -5 1 0 8 10 6 19 7 -1 4
Height
3168 3169 3170 3169 3166 3164 3162 3159 3155 3154 3152 3148 3142 3137 3132 3132 3132 3130 3130 3130 3130 3131 3131 3132 3131 3131 3129 3123 3124 3125 3125 3123 3122 3123 3122 3122 3123 3124 3125 3126 3128 3129 3132 3134
3168 3166 3164 3163 3161 3159 3158 3155 3153 3149 3148 3143 3137 3129 3126 3125 3126 3126 3126 3127 3127 3125 3124 3119 3116 3115 3114 3116 3114 3114 3115 3115 3114 3111 3116 3115 3115 3115 3116 3116 3119 3121 3123 3125
3166 3166 3161 3159 3157 3157 3156 3153 3149 3146 3140 3136 3132 3125 3125 3125 3124 3125 3121 3118 3116 3114 3112 3110 3110 3109 3109 3106 3104 3104 3105 3106 3105 3102 3104 3104 3105 3103 3104 3109 3111 3113 3115 3116
3162 3158 3157 3156 3154 3154 3150 3147 3144 3142 3140 3136 3135 3122 3123 3122 3123 3116 3112 3112 3110 3108 3105 3103 3102 3101 3099 3097 3098 3097 3096 3096 3097 3095 3092 3092 3094 3094 3099 3103 3104 3105 3106 3107
3162 3157 3153 3152 3152 3148 3145 3141 3139 3137 3136 3131 3128 3128 3119 3118 3119 3114 3108 3105 3104 3101 3099 3098 3096 3093 3092 3091 3089 3088 3089 3088 3087 3086 3083 3081 3082 3085 3088 3090 3093 3094 3096 3097
3153 3152 3150 3147 3145 3144 3142 3140 3136 3131 3132 3128 3116 3120 3114 3115 3115 3108 3105 3104 3101 3095 3093 3090 3087 3084 3082 3081 3079 3076 3076 3076 3076 3075 3073 3069 3072 3076 3074 3077 3080 3084 3086 3088
3153 3150 3147 3146 3145 3144 3143 3140 3131 3122 3125 3116 3114 3114 3114 3113 3106 3102 3100 3098 3094 3089 3084 3080 3076 3076 3071 3067 3069 3067 3064 3062 3061 3061 3061 3060 3059 3062 3063 3063 3065 3070 3074 3079
3152 3148 3147 3144 3143 3142 3140 3142 3140 3126 3114 3110 3114 3106 3109 3111 3101 3099 3099 3097 3092 3084 3076 3073 3069 3068 3064 3059 3055 3053 3054 3050 3048 3047 3044 3045 3045 3046 3049 3051 3051 3055 3060 3069
3151 3147 3143 3141 3137 3141 3139 3139 3135 3131 3124 3114 3103 3099 3099 3103 3091 3085 3083 3083 3082 3077 3070 3066 3062 3059 3055 3050 3046 3042 3041 3040 3037 3034 3033 3030 3030 3030 3033 3037 3039 3041 3047 3055
3151 3142 3137 3136 3134 3135 3135 3133 3133 3131 3118 3102 3090 3094 3094 3092 3088 3081 3076 3075 3072 3068 3060 3059 3055 3049 3043 3040 3034 3029 3028 3028 3025 3023 3022 3020 3017 3016 3017 3021 3026 3028 3034 3041
3145 3142 3137 3134 3134 3131 3131 3128 3128 3127 3123 3110 3099 3083 3092 3085 3086 3082 3081 3078 3073 3066 3062 3055 3049 3044 3038 3032 3028 3023 3017 3016 3014 3012 3010 3008 3006 3004 3003 3006 3012 3015 3021 3027
3140 3136 3131 3128 3126 3122 3121 3123 3125 3125 3117 3113 3111 3073 3088 3085 3083 3080 3075 3071 3066 3061 3056 3050 3045 3038 3032 3028 3023 3016 3010 3006 3002 3001 3000 2998 2997 2994 2992 2993 2997 3002 3007 3015
3137 3136 3129 3123 3123 3121 3122 3121 3121 3120 3116 3099 3104 3078 3084 3080 3077 3073 3067 3064 3059 3055 3049 3042 3036 3031 3026 3020 3014 3008 3003 2997 2991 2989 2989 2988 2987 2984 2982 2983 2985 2990 2995 3003
3131 3130 3130 3127 3124 3123 3118 3117 3115 3112 3104 3093 3089 3078 3078 3076 3071 3066 3061 3057 3052 3047 3042 3035 3029 3025 3019 3012 3007 3001 2994 2988 2982 2977 2979 2979 2977 2975 2974 2973 2976 2980 2986 2993
3128 3125 3124 3122 3119 3115 3110 3107 3104 3100 3095 3090 3079 3076 3072 3069 3064 3059 3056 3050 3045 3040 3034 3029 3022 3015 3010 3004 2999 2994 2988 2980 2975 2969 2967 2967 2967 2967 2966 2965 2966 2971 2976 2984
3126 3120 3117 3113 3111 3108 3102 3098 3094 3091 3086 3079 3073 3066 3068 3061 3057 3052 3048 3044 3038 3032 3026 3021 3014 3005 3001 2997 2992 2986 2981 2976 2971 2965 2958 2955 2957 2957 2958 2958 2959 2961 2967 2975
3121 3118 3115 3104 3105 3102 3093 3087 3087 3083 3080 3076 3067 3062 3059 3054 3049 3043 3040 3036 3030 3025 3018 3012 3006 2998 2992 2987 2983 2977 2973 2969 2962 2957 2952 2947 2945 2949 2950 2951 2952 2954 2958 2967
3115 3115 3115 3104 3101 3092 3086 3085 3082 3076 3071 3069 3061 3057 3053 3047 3041 3034 3035 3028 3022 3017 3010 3004 2998 2990 2983 2977 2972 2968 2965 2960 2955 2951 2946 2941 2938 2936 2937 2940 2943 2948 2951 2958
3111 3112 3110 3105 3098 3086 3081 3079 3076 3069 3061 3059 3054 3048 3045 3040 3033 3023 3028 3022 3015 3009 3002 2996 2988 2981 2973 2968 2963 2958 2953 2950 2946 2942 2938 2934 2928 2924 2925 2928 2933 2940 2944 2951
3109 3109 3107 3102 3095 3082 3071 3071 3068 3062 3054 3052 3046 3042 3036 3031 3023 3016 3014 3009 3003 2999 2993 2985 2978 2972 2965 2958 2954 2948 2943 2939 2933 2929 2926 2923 2919 2916 2917 2920 2923 2932 2938 2944
3106 3102 3098 3093 3086 3078 3069 3066 3062 3058 3052 3045 3041 3035 3028 3023 3017 3010 3005 3000 2995 2988 2982 2976 2969 2963 2956 2949 2943 2937 2933 2929 2923 2918 2915 2913 2908 2905 2907 2913 2915 2924 2931 2935
3100 3097 3091 3085 3082 3071 3067 3065 3062 3052 3042 3036 3031 3025 3019 3012 3006 3000 2996 2991 2985 2977 2970 2965 2958 2952 2947 2940 2933 2927 2923 2918 2914 2908 2905 2900 2895 2895 2897 2902 2908 2915 2922 2928
3092 3090 3085 3083 3071 3064 3060 3054 3048 3042 3034 3028 3022 3015 3010 3003 2997 2991 2985 2979 2973 2968 2961 2955 2948 2941 2937 2931 2925 2917 2912 2906 2902 2899 2892 2887 2883 2882 2884 2890 2897 2906 2914 2920
3083 3081 3074 3068 3058 3056 3050 3046 3040 3032 3025 3018 3012 3006 3001 2994 2987 2980 2975 2967 2961 2956 2950 2944 2936 2931 2925 2920 2915 2909 2901 2896 2890 2886 2881 2876 2873 2872 2875 2883 2888 2896 2907 2913
3073 3069 3061 3055 3050 3045 3042 3037 3029 3020 3015 3008 3002 2997 2991 2984 2976 2968 2961 2954 2949 2943 2937 2932 2925 2919 2913 2909 2904 2898 2892 2885 2880 2875 2869 2865 2862 2864 2868 2875 2881 2889 2899 2909
3062 3059 3056 3047 3044 3038 3028 3024 3018 3010 3004 2998 2992 2983 2978 2972 2963 2955 2945 2940 2933 2927 2923 2917 2912 2908 2902 2898 2893 2888 2882 2876 2870 2865 2859 2854 2855 2858 2862 2869 2877 2880 2894 2905